Regional Weather Roundup
Issued by NWS

Home | Current Version | Previous Version | Graphics & Text | Print | Product List | Glossary On
Versions: 1 2 3 4 5 6 7 8 9 10 11 12 13 14 15 16 17 18 19 20 21 22 23 24 25 26 27
000
ASUS45 KPSR 302210
RWRAZ

ARIZONA HOURLY REGIONAL WEATHER ROUNDUP
NATIONAL WEATHER SERVICE PHOENIX AZ
300 PM MST MON MAY 30 2016

NOTE: FAIR INDICATES FEW OR NO CLOUDS BELOW 12,000 FEET WITH NO
SIGNIFICANT WEATHER AND/OR OBSTRUCTIONS TO VISIBILITY.

AZZ001>003-036-302300-
NORTHWEST ARIZONA

CITY           SKY/WX    TMP DP  RH WIND       PRES   REMARKS
BULLHEAD CITY  MOSUNNY   97  23   7 MISG      29.77F
KINGMAN        PTSUNNY   90  19   7 N18G24    29.93F
$$

AZZ004>008-015-016-018-302300-
NORTH CENTRAL ARIZONA

CITY           SKY/WX    TMP DP  RH WIND       PRES   REMARKS
GRAND CANYON   PTSUNNY   70  25  18 N10       30.11F
WILLIAMS       PTSUNNY   70  19  14 VRB7      30.20S
PRESCOTT       MOSUNNY   77  17  10 E8        30.02F
FLAGSTAFF      CLOUDY    67  21  17 VRB6      30.12F
PAYSON         SUNNY     81  14   8 SW8G18    30.05S
PAGE           CLOUDY    82  28  14 N16G22    29.95S
$$

AZZ009>014-017-302300-
NORTHEAST ARIZONA

CITY           SKY/WX    TMP DP  RH WIND       PRES   REMARKS
WINSLOW        MOSUNNY   81  25  12 MISG      29.98F
SAINT JOHNS    PTSUNNY   74  27  17 VRB5      30.02F
WINDOW ROCK    SUNNY     76  13   9 S10G21    30.08F
SHOW LOW       SUNNY     73  16  11 S15G23    30.09F
$$

AZZ023-302300-
GREATER PHOENIX AREA

CITY           SKY/WX    TMP DP  RH WIND       PRES   REMARKS
PHOENIX        MOSUNNY   92  15   6 NW7       29.80F
BUCKEYE        SUNNY     91  21   8 S7        29.83F
GLENDALE       MOSUNNY   91  18   6 W9        29.83F
LUKE AFB       SUNNY     91  19   7 W7        29.80F
DEER VALLEY    SUNNY     90  14   6 S8G17     29.82F
SCOTTSDALE     SUNNY     90  12   5 VRB7      29.84F
MESA-FALCON    MOSUNNY  N/A N/A N/A SW9       29.80F
MESA-GATEWAY   SUNNY     91  19   7 W9        29.83F
CHANDLER       SUNNY     91  21   8 SE12      29.82F
$$

AZZ027-028-302300-
SOUTHWEST MARICOPA COUNTY AND PINAL COUNTY

CITY           SKY/WX    TMP DP  RH WIND       PRES   REMARKS
CASA GRANDE    SUNNY     91  28  10 N5        29.84F
GILA BEND      FAIR      92  22   8 W8G17     29.80F
$$

AZZ503-504-507>509-302300-
SOUTHEAST ARIZONA

CITY           SKY/WX    TMP DP  RH WIND       PRES   REMARKS
TUCSON         SUNNY     92  18   6 S9G23     29.87F
DAVIS-MONTHAN  SUNNY     92  18   7 SW12G22   29.86F
NOGALES        SUNNY     87  29  12 SW18G25   29.95F
SIERRA VISTA   MOSUNNY   86  28  12 SW17G26   29.99F
DOUGLAS        LGT RAIN  81  48  31 SW12G29   29.94F
SAFFORD        MOSUNNY   93  32  11 W13G21    29.84F
$$

AZZ020-021-025-026-031-302300-
SOUTHWEST ARIZONA

CITY           SKY/WX    TMP DP  RH WIND       PRES   REMARKS
YUMA           SUNNY     94  40  15 VRB5      29.79F
$$

CAZ031-033-041-043-047-048-061-302300-
SOUTHERN CALIFORNIA

CITY           SKY/WX    TMP DP  RH WIND       PRES   REMARKS
DOWNTOWN L.A.  MOSUNNY   70  56  61 CALM      29.94F
L.A. AIRPORT   MOSUNNY   66  55  67 W14G21    29.96F
SAN DIEGO      PTSUNNY   68  56  65 NW15      29.97F
BURBANK        SUNNY     73  55  53 SE5       29.93F
ONTARIO        MOSUNNY   76  52  43 W8        29.93F
RIVERSIDE      SUNNY     77  53  43 VRB3      29.92F
PALM SPRINGS   SUNNY     97  38  13 VRB3      29.80F
EL CENTRO NAS  SUNNY     95  34  11 E8        29.79F
IMPERIAL       SUNNY     95  40  14 VRB6      29.77F
BLYTHE         SUNNY     94  35  12 SE9       29.78F
NEEDLES        SUNNY     98  22   6 VRB3      29.78F
$$

NVZ020-UTZ003-302300-
SOUTHERN NEVADA-UTAH

CITY           SKY/WX    TMP DP  RH WIND       PRES   REMARKS
LAS VEGAS      MOSUNNY   94  26   9 CALM      29.81F
SALT LAKE CITY PTSUNNY   78  36  21 N14G20    30.05F
$$

NMZ009-TXZ055-302300-
NEW MEXICO-WEST TEXAS

CITY           SKY/WX    TMP DP  RH WIND       PRES   REMARKS
ALBUQUERQUE    PTSUNNY   83  21  10 VRB5      29.98F
EL PASO        CLOUDY    86  39  19 S29G40    29.93S
$$


........................KEY........................
SKY/WX - SKY CONDITION/WEATHER
TMP    - TEMPERATURE IN FAHRENHEIT
DP     - DEW POINT IN FAHRENHEIT
RH     - RELATIVE HUMIDITY IN PERCENT
WIND   - DIRECTION AND SPEED IN MILES PER HOUR (MPH)
VRB    - VARIABLE WIND DIRECTION
PRES   - MEAN SEA LEVEL PRESSURE IN INCHES OF MERCURY
         F - FALLING PRESSURE   R - RISING PRESSURE
         S - STEADY PRESSURE
VSB    - VISIBILITY IN MILES
HX     - HEAT INDEX IN FAHRENHEIT
WCI    - WIND CHILL INDEX IN FAHRENHEIT
TC     - TEMPERATURE IN CELSIUS WHICH IS ALSO KNOWN AS
         TEMPERATURE IN CENTIGRADE
AFB    - AIR FORCE BASE
         LUKE AFB IS LUKE AIR FORCE BASE
         DAVIS-MONTHAN IS DAVIS-MONTHAN AIR FORCE BASE
NAS    - NAVAL AIR STATION
         EL CENTRO NAS IS EL CENTRO NAVAL AIR STATION
N/A    - NOT AVAILABLE





USA.gov is the U.S. government's official web portal to all federal, state and local government web resources and services.